Flag for Germany Weather past 2 weeks in Delmenhorst, Lower Saxony, Germany

Now
52 °F

Broken clouds.


Feels Like: 47 °F
Forecast: 42 / 52 °F
Wind: 14 mph from Southwest

Location: Bremen Airport

Current Time: Dec 18, 2014 at 2:04:23 PM

Latest Report: Dec 18, 2014 at 1:20 PM


Visibility: N/A

Pressure: 29.68 "Hg

Humidity: 94%

Dew point: 50 °F

Location of DelmenhorstLocation

Historic Weather in Delmenhorst — Graph

°F

Delmenhorst temperature yesterday

Maximum temperature yesterday: 48 °F (at 7:50 PM)
Minimum temperature yesterday: 34 °F (at 12:20 AM)
Average temperature yesterday: 40 °F

Past Weeks' High & Low Weather Summary

 TemperatureHumidityPressure
High52 °F (Dec 18, 9:50 AM)100% (Dec 4, 6:50 PM)30.33 "Hg (Dec 4, 6:50 PM)
Low27 °F (Dec 3, 12:20 PM)70% (Dec 10, 4:20 AM)29.24 "Hg (Dec 12, 11:50 AM)
Average39 °F90%29.89 "Hg
* Reported Dec 3 12:20 PM — Dec 18 12:50 PM, Delmenhorst, Weather by CustomWeather, © 2014

Note: Actual official high and low records may vary slightly from our data, if they occured in-between our weather recording intervals... More about our weather records

Advertising

Delmenhorst weather history for previous 24 hours

 ConditionsComfort  
Time TempWeatherWind HumidityBarometerVisibility
12:50 PM
Dec 18
52 °FDrizzle. Broken clouds.14 mph94%29.68 "HgN/A
12:20 PM52 °FPartly sunny.14 mph94%29.71 "HgN/A
11:20 AM52 °FPartly sunny.14 mph94%29.71 "Hg4 mi
10:50 AM52 °FPartly sunny.15 mph94%29.71 "Hg4 mi
10:20 AM52 °FFog.14 mph94%29.71 "Hg3 mi
9:50 AM52 °FFog.13 mph94%29.71 "Hg3 mi
9:20 AM50 °FFog.13 mph100%29.71 "Hg2 mi
8:50 AM50 °FFog.12 mph94%29.71 "Hg2 mi
8:20 AM50 °FDrizzle. Fog.10 mph94%29.71 "Hg1 mi
7:50 AM50 °FFog.8 mph94%29.71 "Hg2 mi
7:20 AM50 °FFog.9 mph94%29.71 "Hg2 mi
6:50 AM50 °FFog.9 mph94%29.71 "Hg2 mi
6:20 AM50 °FDrizzle. Low clouds.10 mph94%29.71 "Hg2 mi
5:50 AM48 °FDrizzle. Low clouds.8 mph100%29.71 "Hg1 mi
5:20 AM48 °FDrizzle. Low clouds.10 mph100%29.71 "Hg2 mi
4:20 AM50 °FPassing clouds.9 mph94%29.71 "HgN/A
3:50 AM50 °FPassing clouds.8 mph88%29.71 "HgN/A
3:20 AM48 °FPassing clouds.12 mph94%29.71 "HgN/A
2:50 AM48 °FPassing clouds.12 mph94%29.71 "HgN/A
2:20 AM48 °FPassing clouds.12 mph94%29.71 "HgN/A
1:50 AM48 °FPassing clouds.10 mph94%29.71 "HgN/A
1:20 AM48 °FPassing clouds.14 mph94%29.71 "HgN/A
12:50 AM48 °FPassing clouds.13 mph94%29.71 "HgN/A
12:20 AM48 °FPartly cloudy.13 mph94%29.71 "HgN/A
11:20 PM
Dec 17
46 °FPassing clouds.9 mph93%29.68 "HgN/A
10:50 PM46 °FPassing clouds.9 mph93%29.68 "HgN/A
10:20 PM46 °FPartly cloudy.12 mph93%29.68 "HgN/A
9:50 PM46 °FPassing clouds.10 mph93%29.65 "HgN/A
9:20 PM48 °FPassing clouds.14 mph87%29.65 "HgN/A
8:50 PM48 °FPassing clouds.15 mph87%29.62 "HgN/A
8:20 PM48 °FPassing clouds.14 mph87%29.62 "HgN/A
7:50 PM48 °FPassing clouds.15 mph94%29.59 "HgN/A
7:20 PM46 °FPassing clouds.13 mph100%29.59 "HgN/A
6:50 PM46 °FPassing clouds.13 mph100%29.56 "Hg4 mi
6:20 PM46 °FPassing clouds.12 mph93%29.56 "Hg4 mi
5:50 PM45 °FPassing clouds.10 mph100%29.53 "Hg5 mi
5:20 PM45 °FPartly cloudy.12 mph100%29.53 "Hg4 mi
4:50 PM45 °FPartly cloudy.12 mph93%29.50 "Hg4 mi
4:20 PM43 °FPartly cloudy.15 mph100%29.50 "Hg2 mi
3:50 PM43 °FDrizzle. Broken clouds.13 mph93%29.50 "Hg2 mi
3:20 PM41 °FDrizzle. Broken clouds.9 mph100%29.50 "Hg2 mi
2:50 PM41 °FDrizzle. Broken clouds.10 mph93%29.50 "Hg2 mi
2:20 PM39 °FDrizzle. Broken clouds.12 mph100%29.50 "Hg2 mi
Weather by CustomWeather, © 2014

See weather overviewHow to use our weather pages